Location: Brad
(46.1333°N, 22.7833°E)
Time: 10:37:12
(UTC+00:00)

SL-4 R/B - Pass Details

Date: 03 February 2023
Orbit: 423 x 637 km, 51.6° (Epoch: 31 March)

Event Time Altitude Azimuth Distance (km) Brightness Sun altitude
Rises 16:55:54 0° 287° (WNW) 2,414 6.5 -14.0°
Reaches altitude 10° 16:58:06 10° 297° (WNW) 1,567 5.2 -14.4°
Maximum altitude 17:01:20 33° 4° (N) 792 2.7 -15.0°
Enters shadow 17:02:40 25° 46° (NE) 983 2.8 -15.2°
